This demonstration page uses our WeatherBlox Daily Observations layout. Learn more.

Left ArrowRight Arrow

Hourly Observations for March 4, 2019

Temp ( °F °C ) Dew Point ( °F °C ) Humidity (%) Winds ( mph kmh ) Pressure ( in mb ) Visibility ( mi km ) Precip ( " mm )
12:57 am 00:57 Clear -6 -21.1 -15 -26.1 64 64 WNW 12 19 30.57 1035 10 16 0.00 0.00
1:57 am 01:57 Clear -10 -23.3 -18 -27.8 67 67 WNW 12 19 30.57 1035 10 16 0.00 0.00
2:57 am 02:57 Clear -7 -21.7 -16 -26.7 64 64 NW 13 20 30.55 1034 10 16 0.00 0.00
3:57 am 03:57 Clear -8 -22.2 -16 -26.7 67 67 NW 8 13 30.54 1034 10 16 0.00 0.00
4:57 am 04:57 Clear -10 -23.3 -17 -27.2 70 70 NW 7 11 30.55 1035 10 16 0.00 0.00
5:57 am 05:57 Clear -12 -24.4 -18 -27.8 73 73 WNW 9 15 30.56 1035 10 16 0.00 0.00
6:57 am 06:57 Clear -9 -22.8 -17 -27.2 67 67 WNW 10 17 30.56 1035 10 16 0.00 0.00
7:57 am 07:57 Sunny -5 -20.6 -14 -25.6 64 64 WNW 10 17 30.57 1035 10 16 0.00 0.00
8:57 am 08:57 Sunny -3 -19.4 -13 -25 61 61 WNW 9 15 30.57 1035 10 16 0.00 0.00
9:57 am 09:57 Sunny 0 -17.8 -10 -23.3 62 62 WNW 13 20 30.55 1035 10 16 0.00 0.00
10:57 am 10:57 Sunny 2 -16.7 -9 -22.8 59 59 W 10 17 30.53 1034 10 16 0.00 0.00
11:57 am 11:57 Sunny 5 -15 -6 -21.1 60 60 WNW 14 22 30.52 1034 10 16 0.00 0.00
12:57 pm 12:57 Sunny 8 -13.3 -2 -18.9 63 63 WNW 10 17 30.50 1033 10 16 0.00 0.00
1:57 pm 13:57 Sunny with Light Snow 10 -12.2 -1 -18.3 61 61 WNW 15 24 30.47 1032 10 16 0.00 0.03
2:57 pm 14:57 Sunny 12 -11.1 0 -17.8 58 58 W 14 22 30.43 1031 10 16 0.00 0.03
3:57 pm 15:57 Sunny 14 -10 0 -17.8 53 53 W 13 20 30.43 1030 10 16 0.00 0.00
4:57 pm 16:57 Sunny 14 -10 1 -17.2 56 56 W 14 22 30.42 1030 10 16 0.00 0.00
5:57 pm 17:57 Sunny 13 -10.6 1 -17.2 59 59 W 8 13 30.40 1030 10 16 0.00 0.00
6:57 pm 18:57 Clear 8 -13.3 -1 -18.3 66 66 W 9 15 30.41 1030 10 16 0.00 0.00
7:57 pm 19:57 Clear 9 -12.8 0 -17.8 66 66 W 13 20 30.40 1030 10 16 0.00 0.00
8:57 pm 20:57 Clear 6 -14.4 -2 -18.9 69 69 W 9 15 30.40 1029 10 16 0.00 0.00
9:57 pm 21:57 Clear 9 -12.8 -1 -18.3 64 64 W 12 19 30.40 1029 10 16 0.00 0.00
10:57 pm 22:57 Clear 9 -12.8 -1 -18.3 64 64 WNW 13 20 30.40 1030 10 16 0.00 0.00
11:57 pm 23:57 Clear 6 -14.4 -2 -18.9 69 69 W 9 15 30.39 1029 10 16 0.00 0.00

Powered by AerisWeather